Previsão horária em Abohar

Hoje, 9 Maio, Domingo

Tempo Temperatura Precipitação Vento Pressão Humidade
00:00 +32°C° 0 mm 2 m/s 737 mmHg 28%
01:00 +32°C° 0 mm 2 m/s 737 mmHg 28%
02:00 +32°C° 0 mm 2 m/s 736 mmHg 29%
03:00 +31°C° 0 mm 2 m/s 737 mmHg 30%
04:00 +31°C° 0 mm 2 m/s 737 mmHg 31%
05:00 +30°C° 0 mm 2 m/s 737 mmHg 32%
06:00 +32°C° 0 mm 2 m/s 738 mmHg 29%
07:00 +35°C° 0 mm 3 m/s 738 mmHg 27%
08:00 +37°C° 0 mm 3 m/s 739 mmHg 24%
09:00 +38°C° 0 mm 3 m/s 739 mmHg 22%
10:00 +40°C° 0 mm 3 m/s 739 mmHg 19%
11:00 +43°C° 0 mm 3 m/s 738 mmHg 16%
12:00 +43°C° 0 mm 3 m/s 738 mmHg 15%
13:00 +44°C° 0 mm 3 m/s 737 mmHg 13%
14:00 +45°C° 0 mm 3 m/s 736 mmHg 12%
15:00 +44°C° 0 mm 4 m/s 735 mmHg 12%
16:00 +44°C° 0 mm 4 m/s 735 mmHg 11%
17:00 +45°C° 0 mm 5 m/s 734 mmHg 11%
18:00 +42°C° 0.1 mm 5 m/s 735 mmHg 15%
19:00 +38°C° 0.1 mm 4 m/s 735 mmHg 20%
20:00 +36°C° 0.1 mm 4 m/s 736 mmHg 24%
21:00 +35°C° 0.1 mm 5 m/s 736 mmHg 26%
22:00 +35°C° 0.1 mm 5 m/s 735 mmHg 27%
23:00 +34°C° 0.1 mm 6 m/s 735 mmHg 29%

Amanhã, 10 Maio, Segunda-feira

Tempo Temperatura Precipitação Vento Pressão Humidade
00:00 +34°C° 0 mm 5 m/s 735 mmHg 30%
01:00 +33°C° 0 mm 5 m/s 735 mmHg 30%
02:00 +33°C° 0 mm 4 m/s 735 mmHg 31%
03:00 +31°C° 0 mm 3 m/s 735 mmHg 33%
04:00 +30°C° 0 mm 3 m/s 735 mmHg 34%
05:00 +30°C° 0 mm 2 m/s 736 mmHg 35%
06:00 +31°C° 0 mm 2 m/s 736 mmHg 31%
07:00 +34°C° 0 mm 3 m/s 737 mmHg 27%
08:00 +36°C° 0 mm 3 m/s 737 mmHg 23%
09:00 +38°C° 0 mm 3 m/s 737 mmHg 20%
10:00 +40°C° 0 mm 2 m/s 736 mmHg 17%
11:00 +43°C° 0 mm 2 m/s 736 mmHg 14%
12:00 +43°C° 0 mm 2 m/s 735 mmHg 12%
13:00 +45°C° 0 mm 2 m/s 735 mmHg 11%
14:00 +46°C° 0 mm 3 m/s 734 mmHg 10%
15:00 +47°C° 0 mm 4 m/s 733 mmHg 10%
16:00 +46°C° 0 mm 5 m/s 733 mmHg 11%
17:00 +45°C° 0 mm 7 m/s 732 mmHg 12%
18:00 +44°C° 0 mm 6 m/s 732 mmHg 14%
19:00 +41°C° 0 mm 6 m/s 733 mmHg 16%
20:00 +39°C° 0 mm 5 m/s 733 mmHg 19%
21:00 +37°C° 0.3 mm 4 m/s 733 mmHg 21%
22:00 +36°C° 0.3 mm 3 m/s 733 mmHg 24%
23:00 +34°C° 0.3 mm 1 m/s 733 mmHg 26%

Depois de amanhã, 11 Maio, Terça-feira

Tempo Temperatura Precipitação Vento Pressão Humidade
00:00 +35°C° 0 mm 2 m/s 733 mmHg 26%
01:00 +35°C° 0 mm 2 m/s 733 mmHg 25%
02:00 +34°C° 0 mm 2 m/s 733 mmHg 24%
03:00 +34°C° 0 mm 2 m/s 733 mmHg 25%
04:00 +34°C° 0 mm 2 m/s 733 mmHg 27%
05:00 +32°C° 0 mm 2 m/s 733 mmHg 28%
06:00 +35°C° 0 mm 2 m/s 734 mmHg 26%
07:00 +36°C° 0 mm 3 m/s 735 mmHg 24%
08:00 +38°C° 0 mm 3 m/s 735 mmHg 22%
09:00 +40°C° 0 mm 3 m/s 735 mmHg 20%
10:00 +41°C° 0 mm 2 m/s 735 mmHg 17%
11:00 +43°C° 0 mm 2 m/s 735 mmHg 14%
12:00 +45°C° 0 mm 2 m/s 734 mmHg 13%
13:00 +46°C° 0 mm 2 m/s 733 mmHg 12%
14:00 +47°C° 0 mm 2 m/s 733 mmHg 11%
15:00 +45°C° 0 mm 5 m/s 732 mmHg 16%
16:00 +41°C° 0 mm 8 m/s 732 mmHg 21%
17:00 +38°C° 0 mm 11 m/s 732 mmHg 26%
18:00 +37°C° 0.2 mm 9 m/s 732 mmHg 27%
19:00 +37°C° 0.2 mm 8 m/s 732 mmHg 27%
20:00 +35°C° 0.2 mm 6 m/s 732 mmHg 28%
21:00 +35°C° 0 mm 6 m/s 733 mmHg 28%
22:00 +35°C° 0 mm 5 m/s 733 mmHg 29%
23:00 +35°C° 0 mm 4 m/s 733 mmHg 29%

12 Maio, Quarta-feira

Tempo Temperatura Precipitação Vento Pressão Humidade
00:00 +34°C° 0.1 mm 3 m/s 733 mmHg 30%
01:00 +34°C° 0.1 mm 3 m/s 733 mmHg 31%
02:00 +34°C° 0.1 mm 2 m/s 734 mmHg 31%
03:00 +34°C° 0 mm 2 m/s 733 mmHg 32%
04:00 +34°C° 0 mm 2 m/s 733 mmHg 32%
05:00 +34°C° 0 mm 2 m/s 733 mmHg 32%
06:00 +34°C° 0 mm 3 m/s 733 mmHg 30%
07:00 +35°C° 0 mm 4 m/s 734 mmHg 28%
08:00 +36°C° 0 mm 5 m/s 734 mmHg 27%
09:00 +37°C° 0 mm 4 m/s 734 mmHg 25%
10:00 +37°C° 0 mm 3 m/s 734 mmHg 24%
11:00 +37°C° 0 mm 3 m/s 735 mmHg 23%
12:00 +37°C° 0 mm 4 m/s 734 mmHg 23%
13:00 +37°C° 0 mm 4 m/s 734 mmHg 23%
14:00 +37°C° 0 mm 5 m/s 733 mmHg 23%
15:00 +36°C° 0.3 mm 6 m/s 733 mmHg 28%
16:00 +34°C° 0.3 mm 7 m/s 734 mmHg 33%
17:00 +32°C° 0.3 mm 7 m/s 734 mmHg 38%
18:00 +32°C° 0.3 mm 7 m/s 734 mmHg 40%
19:00 +30°C° 0.3 mm 7 m/s 733 mmHg 42%
20:00 +31°C° 0.3 mm 8 m/s 733 mmHg 44%
21:00 +30°C° 0 mm 6 m/s 733 mmHg 45%
22:00 +29°C° 0 mm 5 m/s 734 mmHg 47%
23:00 +29°C° 0 mm 4 m/s 734 mmHg 48%

13 Maio, Quinta-feira

Tempo Temperatura Precipitação Vento Pressão Humidade
00:00 +28°C° 0 mm 3 m/s 734 mmHg 50%
01:00 +28°C° 0 mm 2 m/s 734 mmHg 52%
02:00 +27°C° 0 mm 2 m/s 734 mmHg 55%
03:00 +27°C° 0 mm 2 m/s 734 mmHg 55%
04:00 +27°C° 0 mm 3 m/s 734 mmHg 56%
05:00 +27°C° 0 mm 4 m/s 734 mmHg 57%
06:00 +28°C° 0 mm 4 m/s 734 mmHg 53%
07:00 +30°C° 0 mm 4 m/s 735 mmHg 49%
08:00 +32°C° 0 mm 4 m/s 735 mmHg 45%
09:00 +33°C° 0 mm 4 m/s 735 mmHg 40%
10:00 +35°C° 0 mm 4 m/s 736 mmHg 35%
11:00 +37°C° 0 mm 4 m/s 736 mmHg 30%
12:00 +38°C° 0 mm 3 m/s 735 mmHg 28%
13:00 +39°C° 0 mm 3 m/s 735 mmHg 26%
14:00 +40°C° 0 mm 3 m/s 734 mmHg 24%
15:00 +40°C° 0 mm 3 m/s 734 mmHg 23%
16:00 +40°C° 0 mm 4 m/s 733 mmHg 23%
17:00 +40°C° 0 mm 4 m/s 733 mmHg 23%
18:00 +38°C° 0 mm 3 m/s 733 mmHg 25%
19:00 +37°C° 0 mm 3 m/s 733 mmHg 26%
20:00 +36°C° 0 mm 2 m/s 733 mmHg 28%
21:00 +36°C° 0 mm 2 m/s 733 mmHg 29%
22:00 +35°C° 0 mm 2 m/s 734 mmHg 30%
23:00 +35°C° 0 mm 3 m/s 734 mmHg 32%

14 Maio, Sexta-feira

Tempo Temperatura Precipitação Vento Pressão Humidade
00:00 +32°C° 0 mm 4 m/s 734 mmHg 40%
01:00 +29°C° 0 mm 6 m/s 734 mmHg 48%
02:00 +27°C° 0 mm 7 m/s 734 mmHg 56%
03:00 +27°C° 0 mm 7 m/s 734 mmHg 57%
04:00 +27°C° 0 mm 6 m/s 735 mmHg 57%
05:00 +27°C° 0 mm 6 m/s 735 mmHg 57%
06:00 +29°C° 0.2 mm 6 m/s 735 mmHg 52%
07:00 +30°C° 0.2 mm 6 m/s 736 mmHg 47%
08:00 +33°C° 0.2 mm 6 m/s 736 mmHg 43%
09:00 +35°C° 0 mm 5 m/s 736 mmHg 37%
10:00 +38°C° 0 mm 4 m/s 736 mmHg 31%
11:00 +41°C° 0 mm 4 m/s 736 mmHg 25%
12:00 +42°C° 0 mm 3 m/s 735 mmHg 22%
13:00 +43°C° 0 mm 3 m/s 735 mmHg 20%
14:00 +44°C° 0 mm 3 m/s 734 mmHg 18%
15:00 +44°C° 0 mm 3 m/s 733 mmHg 17%
16:00 +44°C° 0 mm 3 m/s 732 mmHg 17%
17:00 +43°C° 0 mm 4 m/s 732 mmHg 16%
18:00 +38°C° 0.4 mm 4 m/s 733 mmHg 27%
19:00 +34°C° 0.4 mm 5 m/s 734 mmHg 37%
20:00 +29°C° 0.4 mm 5 m/s 736 mmHg 48%
21:00 +30°C° 0.3 mm 5 m/s 736 mmHg 45%
22:00 +30°C° 0.3 mm 5 m/s 736 mmHg 43%
23:00 +30°C° 0.3 mm 5 m/s 736 mmHg 40%
Mostrar mais

Necessitamos do seu Consentimento

A Meteoprog e os seus Fornecedores de Serviços podem armazenar e aceder a dados pessoais como cookies, identificadores do dispositivo ou outras tecnologias semelhantes existentes no seu dispositivo e processar estes dados para personalizar conteúdos e anúncios, assim como funcionalidades nas redes sociais e análise de tráfego.

  • Armazenar e/ou aceder a informações no seu dispositivo

    Os cookies, identificadores do dispositivo ou outras informações podem ser armazenados ou acedidos no seu dispositivo, para os fins acima indicados.

  • Anúncios e conteúdos personalizados, medição de anúncios e conteúdos, dados sobre o público-alvo e desenvolvimento de produtos

    Os anúncios e os conteúdos podem ser personalizados com base num perfil. Podem ser adicionados dados adicionais para uma maior personalização dos anúncios e dos conteúdos. A eficácia dos anúncios e dos conteúdos pode ser medida. Podem ser obtidas informações sobre o público que visualizou os anúncios e os conteúdos. Estes dados podem ser usados para desenvolver ou melhorar sistemas, softwares ou a experiência do utilizador.

Ao clicar em "Eu concordo”, permitirá o uso de cookies, identificadores do dispositivo e web beacons mencionados ou outras tecnologias semelhantes. As configurações do navegador do seu dispositivo podem ser alteradas.

Para certos fins, podem ser invocados interesses legítimos ao invés de consentimento. Pode ler mais informação sobre este assunto na nossa Política de Privacidade e Cookies.